ANA259 RJTT-RJFF

Flight info

Callsign ANA259
Flight time 1h 27m
Altitude 30000
Route GUSRO Y20 KIRIN
Aircraft B77W/H-SDE1E2E3FGHIJ2J3J4J5M1RWXY/LB1D1

Departure

Time 2026-02-18 06:28
Airport Tokyo Haneda International Airport (RJTT)

Arrival

Time 2026-02-18 07:55
Airport Fukuoka Airport (RJFF)
Time Latitude Longitude Altitude Speed Heading
2026-02-18 06:04 35.55166 139.78959 72 ft 0 kts 243°
2026-02-18 06:17 35.55173 139.78973 72 ft 2 kts 245°
2026-02-18 06:18 35.55180 139.78992 75 ft 2 kts 242°
2026-02-18 06:18 35.55188 139.79009 74 ft 2 kts 240°
2026-02-18 06:18 35.55197 139.79026 82 ft 2 kts 187°
2026-02-18 06:19 35.55227 139.79020 62 ft 1 kts 155°
2026-02-18 06:19 35.55228 139.79020 62 ft 0 kts 154°
2026-02-18 06:21 35.55217 139.79027 60 ft 6 kts 144°
2026-02-18 06:21 35.55234 139.79110 62 ft 17 kts 60°
2026-02-18 06:21 35.55246 139.79222 67 ft 14 kts 128°
2026-02-18 06:22 35.55145 139.79296 66 ft 20 kts 150°
2026-02-18 06:22 35.55007 139.79395 67 ft 26 kts 149°
2026-02-18 06:22 35.54836 139.79518 62 ft 31 kts 149°
2026-02-18 06:23 35.54406 139.79817 63 ft 38 kts 149°
2026-02-18 06:23 35.54186 139.79977 63 ft 36 kts 147°
2026-02-18 06:23 35.53976 139.80125 72 ft 34 kts 151°
2026-02-18 06:23 35.53804 139.80183 64 ft 26 kts 187°
2026-02-18 06:24 35.53629 139.80211 68 ft 26 kts 153°
2026-02-18 06:24 35.53474 139.80318 63 ft 26 kts 150°
2026-02-18 06:24 35.53319 139.80427 63 ft 26 kts 149°
2026-02-18 06:24 35.53166 139.80539 63 ft 26 kts 150°
2026-02-18 06:25 35.53016 139.80642 63 ft 16 kts 152°
2026-02-18 06:25 35.52913 139.80615 68 ft 16 kts 222°
2026-02-18 06:25 35.52830 139.80522 63 ft 16 kts 222°
2026-02-18 06:25 35.52746 139.80428 63 ft 16 kts 223°
2026-02-18 06:26 35.52662 139.80333 68 ft 16 kts 222°
2026-02-18 06:26 35.52571 139.80233 70 ft 16 kts 218°
2026-02-18 06:26 35.52500 139.80246 64 ft 16 kts 136°
2026-02-18 06:27 35.52471 139.80426 64 ft 14 kts 42°
2026-02-18 06:27 35.52662 139.80638 65 ft 74 kts 42°
2026-02-18 06:27 35.53247 139.81295 68 ft 151 kts 42°
2026-02-18 06:27 35.54131 139.82273 451 ft 173 kts 44°
2026-02-18 06:28 35.55027 139.83283 1276 ft 179 kts 43°
2026-02-18 06:28 35.55957 139.84346 2021 ft 184 kts 48°
2026-02-18 06:28 35.56581 139.85801 2356 ft 209 kts 83°
2026-02-18 06:28 35.56320 139.87633 2622 ft 231 kts 112°
2026-02-18 06:29 35.55700 139.89574 3099 ft 251 kts 110°
2026-02-18 06:29 35.55105 139.91636 3908 ft 260 kts 110°
2026-02-18 06:29 35.54220 139.93579 4652 ft 267 kts 135°
2026-02-18 06:29 35.52661 139.94770 5463 ft 271 kts 166°
2026-02-18 06:30 35.50797 139.94876 6345 ft 269 kts 191°
2026-02-18 06:30 35.48949 139.94420 7109 ft 270 kts 200°
2026-02-18 06:30 35.47352 139.93288 7959 ft 264 kts 230°
2026-02-18 06:31 35.46183 139.89290 10032 ft 250 kts 272°
2026-02-18 06:31 35.46417 139.87136 10707 ft 264 kts 279°
2026-02-18 06:31 35.46798 139.84804 10952 ft 293 kts 280°
2026-02-18 06:31 35.47276 139.82291 11142 ft 319 kts 287°
2026-02-18 06:32 35.48420 139.79827 11696 ft 343 kts 305°
2026-02-18 06:32 35.50077 139.77655 12647 ft 353 kts 310°
2026-02-18 06:32 35.51840 139.75502 13674 ft 360 kts 310°
2026-02-18 06:32 35.53622 139.73297 14699 ft 364 kts 309°
2026-02-18 06:33 35.55380 139.71091 15733 ft 367 kts 309°
2026-02-18 06:33 35.57017 139.68695 16691 ft 363 kts 297°
2026-02-18 06:33 35.58176 139.65940 17483 ft 367 kts 291°
2026-02-18 06:33 35.59300 139.63079 18422 ft 372 kts 291°
2026-02-18 06:34 35.60449 139.60214 19347 ft 374 kts 292°
2026-02-18 06:34 35.61628 139.57331 20245 ft 378 kts 292°
2026-02-18 06:34 35.62830 139.54424 21076 ft 383 kts 292°
2026-02-18 06:35 35.65205 139.48545 22673 ft 387 kts 287°
2026-02-18 06:35 35.65821 139.45327 23342 ft 388 kts 272°
2026-02-18 06:35 35.65856 139.42004 24040 ft 389 kts 268°
2026-02-18 06:35 35.65862 139.38670 24808 ft 391 kts 269°
2026-02-18 06:36 35.65905 139.35313 25508 ft 393 kts 269°
2026-02-18 06:36 35.65960 139.31938 26152 ft 396 kts 269°
2026-02-18 06:36 35.66010 139.28538 26769 ft 399 kts 269°
2026-02-18 06:36 35.66055 139.25115 27381 ft 402 kts 269°
2026-02-18 06:37 35.66099 139.21700 27963 ft 405 kts 269°
2026-02-18 06:37 35.66143 139.18219 28478 ft 408 kts 269°
2026-02-18 06:37 35.66187 139.14718 29061 ft 410 kts 269°
2026-02-18 06:37 35.66167 139.11203 29605 ft 411 kts 266°
2026-02-18 06:38 35.66032 139.07668 29863 ft 415 kts 265°
2026-02-18 06:38 35.65663 139.00537 29846 ft 417 kts 265°
2026-02-18 06:39 35.65150 138.89913 29819 ft 415 kts 265°
2026-02-18 06:39 35.64829 138.82838 29860 ft 415 kts 265°
2026-02-18 06:40 35.64504 138.75717 29823 ft 417 kts 265°
2026-02-18 06:40 35.64174 138.68587 29819 ft 419 kts 265°
2026-02-18 06:41 35.63821 138.61414 29824 ft 420 kts 265°
2026-02-18 06:41 35.63443 138.54240 29828 ft 421 kts 265°
2026-02-18 06:42 35.63127 138.48274 29834 ft 421 kts 265°
2026-02-18 06:43 35.62494 138.36326 29859 ft 420 kts 265°
2026-02-18 06:43 35.62169 138.30362 29851 ft 421 kts 265°
2026-02-18 06:44 35.61780 138.23171 29862 ft 421 kts 265°
2026-02-18 06:44 35.61383 138.15982 29858 ft 421 kts 265°
2026-02-18 06:45 35.60984 138.08836 29907 ft 415 kts 265°
2026-02-18 06:45 35.60579 138.01787 29913 ft 412 kts 265°
2026-02-18 06:46 35.60153 137.94738 29900 ft 416 kts 265°
2026-02-18 06:46 35.59709 137.87646 29910 ft 417 kts 265°
2026-02-18 06:47 35.59032 137.77032 29923 ft 414 kts 265°
2026-02-18 06:47 35.58568 137.69987 29931 ft 413 kts 265°
2026-02-18 06:48 35.58089 137.62937 29929 ft 413 kts 265°
2026-02-18 06:48 35.57596 137.55907 29934 ft 412 kts 265°
2026-02-18 06:49 35.57088 137.48926 29936 ft 411 kts 265°
2026-02-18 06:49 35.56570 137.41937 29933 ft 410 kts 265°
2026-02-18 06:50 35.56044 137.34961 29938 ft 409 kts 265°
2026-02-18 06:51 35.55242 137.24521 29945 ft 408 kts 264°
2026-02-18 06:51 35.54527 137.21165 29946 ft 412 kts 248°
2026-02-18 06:51 35.52973 137.18166 29968 ft 421 kts 239°
2026-02-18 06:52 35.49549 137.12370 29943 ft 420 kts 244°
2026-02-18 06:52 35.47111 137.05914 29954 ft 416 kts 253°
2026-02-18 06:53 35.45408 136.99126 29955 ft 415 kts 257°
2026-02-18 06:53 35.43907 136.92271 29960 ft 415 kts 258°
2026-02-18 06:54 35.42419 136.85484 29945 ft 414 kts 257°
2026-02-18 06:54 35.40899 136.78673 29968 ft 414 kts 257°
2026-02-18 06:55 35.38599 136.68468 29957 ft 414 kts 257°
2026-02-18 06:55 35.37060 136.61667 29953 ft 415 kts 257°
2026-02-18 06:56 35.35513 136.54851 29958 ft 416 kts 257°
2026-02-18 06:56 35.33957 136.48008 29966 ft 417 kts 257°
2026-02-18 06:57 35.32393 136.41157 29966 ft 418 kts 257°
2026-02-18 06:57 35.30832 136.34341 29986 ft 417 kts 257°
2026-02-18 06:58 35.29261 136.27501 29985 ft 417 kts 257°
2026-02-18 06:59 35.26902 136.17255 29987 ft 416 kts 257°
2026-02-18 06:59 35.25327 136.10436 29986 ft 416 kts 257°
2026-02-18 07:00 35.23755 136.03651 29999 ft 417 kts 257°
2026-02-18 07:00 35.22168 135.96816 30001 ft 418 kts 257°
2026-02-18 07:01 35.20575 135.89975 29986 ft 418 kts 257°
2026-02-18 07:01 35.18978 135.83136 29997 ft 419 kts 257°
2026-02-18 07:02 35.17571 135.76237 30001 ft 417 kts 261°
2026-02-18 07:02 35.16418 135.69285 30018 ft 418 kts 261°
2026-02-18 07:03 35.14673 135.58844 30017 ft 418 kts 261°
2026-02-18 07:03 35.13497 135.51892 30005 ft 418 kts 261°
2026-02-18 07:04 35.12315 135.44938 30010 ft 418 kts 262°
2026-02-18 07:04 35.11129 135.37990 30025 ft 418 kts 262°
2026-02-18 07:05 35.09941 135.31035 30026 ft 419 kts 261°
2026-02-18 07:05 35.08741 135.24054 30020 ft 420 kts 261°
2026-02-18 07:06 35.07537 135.17082 30030 ft 420 kts 262°
2026-02-18 07:07 35.05721 135.06607 30033 ft 421 kts 262°
2026-02-18 07:07 35.04506 134.99616 30031 ft 421 kts 262°
2026-02-18 07:08 35.03286 134.92626 30018 ft 421 kts 262°
2026-02-18 07:08 35.02060 134.85636 30022 ft 422 kts 262°
2026-02-18 07:09 35.00827 134.78638 30035 ft 422 kts 262°
2026-02-18 07:09 34.99592 134.71635 30029 ft 423 kts 262°
2026-02-18 07:10 34.98308 134.64625 30038 ft 424 kts 261°
2026-02-18 07:10 34.96913 134.57621 30043 ft 426 kts 260°
2026-02-18 07:11 34.94807 134.47088 30048 ft 426 kts 261°
2026-02-18 07:11 34.93410 134.40064 30046 ft 426 kts 261°
2026-02-18 07:12 34.92014 134.33046 30039 ft 426 kts 261°
2026-02-18 07:12 34.90612 134.26028 30060 ft 426 kts 261°
2026-02-18 07:13 34.89206 134.19012 30056 ft 426 kts 261°
2026-02-18 07:13 34.87796 134.11996 30049 ft 426 kts 261°
2026-02-18 07:14 34.86381 134.04979 30041 ft 427 kts 261°
2026-02-18 07:15 34.84247 133.94434 30028 ft 428 kts 261°
2026-02-18 07:15 34.82817 133.87395 30006 ft 429 kts 261°
2026-02-18 07:16 34.81362 133.80349 30022 ft 429 kts 260°
2026-02-18 07:16 34.79871 133.73314 30026 ft 430 kts 260°
2026-02-18 07:17 34.78374 133.66252 30023 ft 431 kts 260°
2026-02-18 07:17 34.76874 133.59186 30035 ft 432 kts 260°
2026-02-18 07:18 34.75368 133.52104 30037 ft 433 kts 260°
2026-02-18 07:18 34.73859 133.45023 30057 ft 433 kts 260°
2026-02-18 07:19 34.71582 133.34387 30069 ft 433 kts 260°
2026-02-18 07:19 34.70057 133.27291 30074 ft 434 kts 260°
2026-02-18 07:20 34.68527 133.20194 30075 ft 434 kts 260°
2026-02-18 07:20 34.66992 133.13094 30069 ft 435 kts 260°
2026-02-18 07:21 34.65452 133.05987 30057 ft 435 kts 260°
2026-02-18 07:21 34.63906 132.98882 30063 ft 435 kts 260°
2026-02-18 07:22 34.62608 132.92930 30064 ft 436 kts 260°
2026-02-18 07:23 34.60273 132.82265 30062 ft 436 kts 260°
2026-02-18 07:23 34.57928 132.71598 30068 ft 437 kts 260°
2026-02-18 07:24 34.56356 132.64479 30061 ft 437 kts 260°
2026-02-18 07:24 34.54785 132.57382 30091 ft 436 kts 260°
2026-02-18 07:25 34.53206 132.50260 30090 ft 437 kts 260°
2026-02-18 07:25 34.51620 132.43137 30110 ft 438 kts 259°
2026-02-18 07:26 34.50030 132.36032 30110 ft 439 kts 259°
2026-02-18 07:27 34.47618 132.25279 30111 ft 440 kts 260°
2026-02-18 07:27 34.46007 132.18124 30121 ft 439 kts 259°
2026-02-18 07:28 34.44388 132.10970 30110 ft 440 kts 259°
2026-02-18 07:28 34.42772 132.03847 30107 ft 441 kts 259°
2026-02-18 07:29 34.41143 131.96686 30111 ft 441 kts 259°
2026-02-18 07:29 34.39512 131.89528 30129 ft 441 kts 259°
2026-02-18 07:30 34.37873 131.82362 30134 ft 441 kts 259°
2026-02-18 07:30 34.36232 131.75199 30138 ft 441 kts 259°
2026-02-18 07:31 34.33777 131.64530 30130 ft 440 kts 259°
2026-02-18 07:31 34.32119 131.57361 29640 ft 443 kts 259°
2026-02-18 07:32 34.31288 131.53768 28944 ft 440 kts 259°
2026-02-18 07:32 34.30472 131.50268 28244 ft 433 kts 259°
2026-02-18 07:32 34.29658 131.46780 27555 ft 426 kts 259°
2026-02-18 07:32 34.28857 131.43353 26868 ft 420 kts 259°
2026-02-18 07:33 34.28067 131.39966 26186 ft 415 kts 260°
2026-02-18 07:33 34.27288 131.36625 25519 ft 410 kts 260°
2026-02-18 07:33 34.26515 131.33308 24857 ft 407 kts 260°
2026-02-18 07:33 34.25751 131.30034 24216 ft 403 kts 260°
2026-02-18 07:34 34.25000 131.26823 23556 ft 399 kts 260°
2026-02-18 07:34 34.24247 131.23606 22831 ft 396 kts 260°
2026-02-18 07:34 34.23498 131.20418 22173 ft 391 kts 260°
2026-02-18 07:34 34.22760 131.17272 21528 ft 385 kts 260°
2026-02-18 07:35 34.22031 131.14175 20913 ft 380 kts 260°
2026-02-18 07:35 34.21310 131.11110 20299 ft 376 kts 259°
2026-02-18 07:35 34.20604 131.08117 19701 ft 373 kts 259°
2026-02-18 07:35 34.19896 131.05119 19105 ft 369 kts 259°
2026-02-18 07:36 34.19176 131.02150 18527 ft 367 kts 257°
2026-02-18 07:36 34.18270 130.99259 17876 ft 368 kts 252°
2026-02-18 07:36 34.16246 130.93646 16662 ft 361 kts 252°
2026-02-18 07:37 34.15253 130.90877 16093 ft 357 kts 252°
2026-02-18 07:37 34.14276 130.88137 15527 ft 354 kts 253°
2026-02-18 07:37 34.13319 130.85449 14973 ft 351 kts 253°
2026-02-18 07:37 34.12357 130.82752 14421 ft 348 kts 253°
2026-02-18 07:38 34.11386 130.80078 13856 ft 346 kts 252°
2026-02-18 07:38 34.10398 130.77431 13171 ft 346 kts 252°
2026-02-18 07:38 34.09404 130.74784 12573 ft 344 kts 251°
2026-02-18 07:38 34.08417 130.72159 12008 ft 341 kts 251°
2026-02-18 07:39 34.07452 130.69592 11477 ft 338 kts 251°
2026-02-18 07:39 34.06483 130.67008 10946 ft 336 kts 251°
2026-02-18 07:39 34.05538 130.64495 10806 ft 322 kts 251°
2026-02-18 07:39 34.04631 130.62083 10656 ft 310 kts 252°
2026-02-18 07:40 34.03760 130.59766 10515 ft 290 kts 252°
2026-02-18 07:40 34.02963 130.57655 10233 ft 264 kts 252°
2026-02-18 07:40 34.01496 130.53734 9785 ft 247 kts 253°
2026-02-18 07:41 34.00801 130.51887 9662 ft 237 kts 253°
2026-02-18 07:41 34.00138 130.50126 9505 ft 230 kts 253°
2026-02-18 07:41 33.99430 130.48415 9209 ft 230 kts 244°
2026-02-18 07:41 33.98451 130.46857 8827 ft 235 kts 239°
2026-02-18 07:42 33.97416 130.45327 8512 ft 235 kts 239°
2026-02-18 07:42 33.96395 130.43797 8195 ft 234 kts 239°
2026-02-18 07:42 33.95383 130.42259 7901 ft 233 kts 239°
2026-02-18 07:42 33.94380 130.40725 7602 ft 232 kts 239°
2026-02-18 07:43 33.93393 130.39219 7276 ft 231 kts 236°
2026-02-18 07:43 33.92156 130.37930 6841 ft 241 kts 220°
2026-02-18 07:43 33.90729 130.36850 6563 ft 241 kts 217°
2026-02-18 07:43 33.89299 130.35814 6317 ft 238 kts 217°
2026-02-18 07:44 33.87885 130.34784 6032 ft 236 kts 217°
2026-02-18 07:44 33.86486 130.33751 5742 ft 235 kts 217°
2026-02-18 07:44 33.83722 130.31688 5160 ft 233 kts 217°
2026-02-18 07:45 33.82356 130.30663 4924 ft 229 kts 217°
2026-02-18 07:45 33.81048 130.29680 4834 ft 218 kts 217°
2026-02-18 07:45 33.79795 130.28739 4786 ft 205 kts 218°
2026-02-18 07:45 33.78611 130.27845 4829 ft 199 kts 218°
2026-02-18 07:46 33.77433 130.26952 4821 ft 200 kts 218°
2026-02-18 07:46 33.76258 130.26063 4809 ft 199 kts 218°
2026-02-18 07:46 33.75062 130.25156 4564 ft 207 kts 218°
2026-02-18 07:46 33.73837 130.24248 4261 ft 206 kts 212°
2026-02-18 07:47 33.72437 130.24006 3717 ft 211 kts 169°
2026-02-18 07:47 33.71178 130.24848 3442 ft 203 kts 143°
2026-02-18 07:47 33.70146 130.26008 3297 ft 206 kts 138°
2026-02-18 07:47 33.69124 130.27233 3138 ft 206 kts 137°
2026-02-18 07:48 33.68126 130.28444 3026 ft 203 kts 137°
2026-02-18 07:48 33.67128 130.29655 2947 ft 204 kts 137°
2026-02-18 07:48 33.65139 130.32062 2640 ft 204 kts 137°
2026-02-18 07:49 33.64147 130.33258 2434 ft 201 kts 138°
2026-02-18 07:49 33.63164 130.34443 2203 ft 199 kts 138°
2026-02-18 07:49 33.62186 130.35619 1991 ft 197 kts 138°
2026-02-18 07:49 33.61218 130.36783 1780 ft 197 kts 137°
2026-02-18 07:50 33.60277 130.37917 1597 ft 183 kts 137°
2026-02-18 07:50 33.59378 130.38844 1428 ft 158 kts 157°
2026-02-18 07:50 33.58424 130.39423 1384 ft 156 kts 156°
2026-02-18 07:50 33.57473 130.40069 1322 ft 162 kts 156°
2026-02-18 07:51 33.56493 130.40741 1198 ft 160 kts 155°
2026-02-18 07:51 33.55537 130.41401 1099 ft 158 kts 155°
2026-02-18 07:51 33.54589 130.42036 1024 ft 156 kts 155°
2026-02-18 07:51 33.53617 130.42696 992 ft 163 kts 154°
2026-02-18 07:52 33.52634 130.43365 908 ft 160 kts 153°
2026-02-18 07:52 33.51760 130.44140 878 ft 153 kts 131°
2026-02-18 07:52 33.51746 130.46423 740 ft 148 kts 41°
2026-02-18 07:53 33.52670 130.46965 710 ft 146 kts 10°
2026-02-18 07:53 33.53651 130.47259 723 ft 146 kts
2026-02-18 07:53 33.54647 130.47436 615 ft 140 kts 356°
2026-02-18 07:53 33.55548 130.47161 460 ft 132 kts 330°
2026-02-18 07:54 33.56332 130.46614 308 ft 129 kts 328°
2026-02-18 07:54 33.57128 130.46069 163 ft 133 kts 328°
2026-02-18 07:54 33.57932 130.45517 48 ft 131 kts 327°
2026-02-18 07:54 33.58643 130.45031 38 ft 99 kts 329°
2026-02-18 07:55 33.59090 130.44728 28 ft 56 kts 330°
2026-02-18 07:55 33.59374 130.44535 30 ft 42 kts 330°
2026-02-18 07:55 33.59522 130.44489 29 ft 13 kts 355°
2026-02-18 07:55 33.59614 130.44488 30 ft 10 kts
2026-02-18 07:56 33.59663 130.44508 30 ft 5 kts 52°
2026-02-18 07:56 33.59684 130.44545 30 ft 6 kts 58°
2026-02-18 07:56 33.59750 130.44621 30 ft 7 kts 48°
2026-02-18 07:57 33.59776 130.44666 30 ft 5 kts 60°
2026-02-18 07:57 33.59787 130.44688 30 ft 0 kts 60°